Temperature
20 19 19 19 19 20 20 19 19 19 20 19 19 18 18 19 18 18 18 19 19 21 22 22 23 23 23 23 23 23 23 22 22 21 20 20 20 19 19 19 18 18 18 18
18 19 20 20 19 19 18 18 18 18 19 19 18 17 18 17 17 17 17 17 17 19 21 22 22 23 23 24 24 24 23 23 22 21 21 20 20 19 19 19 18 18 18 18
20 20 20 20 19 18 18 18 18 18 18 18 18 17 17 16 17 16 16 16 16 17 19 21 22 23 23 23 24 24 23 23 22 22 21 20 20 19 19 19 18 18 18 18
20 19 19 19 19 18 17 18 18 18 17 16 17 16 16 15 15 16 15 15 15 16 18 20 21 22 23 23 23 22 22 22 22 21 20 20 19 19 19 19 18 18 18 17
19 19 18 18 18 18 18 17 17 17 16 15 15 15 15 14 14 15 15 15 15 15 17 19 20 21 22 22 21 21 21 20 20 20 19 19 19 19 18 18 18 17 17 17
18 18 18 18 18 18 17 16 15 14 14 15 15 15 14 14 14 14 15 14 14 15 16 17 18 19 20 20 20 20 19 19 19 18 18 18 18 18 18 18 17 17 17 17
15 17 17 17 16 16 15 15 14 14 14 14 15 15 14 14 14 14 14 14 14 14 15 16 17 17 17 18 18 18 18 18 18 17 18 18 18 18 17 17 17 17 17 16
15 15 16 16 16 15 15 14 14 13 13 14 14 14 14 14 14 14 14 14 14 14 14 15 15 16 17 17 17 17 17 17 17 17 17 17 18 17 17 17 17 17 16 16
15 15 16 16 15 15 14 13 13 12 13 14 14 14 14 14 13 13 13 13 14 13 14 14 15 15 16 16 16 16 16 16 17 17 17 17 18 17 17 17 17 17 16 16
15 14 14 14 15 14 13 12 11 12 12 13 14 13 12 12 12 13 13 13 13 14 14 14 14 15 15 15 15 16 16 16 17 17 17 17 17 17 17 17 17 17 16 16
14 13 13 13 12 12 12 12 11 10 11 12 13 12 12 11 11 12 12 13 13 13 14 14 14 14 15 15 15 16 16 16 17 17 17 17 18 17 17 17 17 17 16 16
12 10 11 12 12 12 12 11 11 11 11 12 12 12 12 11 11 11 12 12 13 13 14 14 14 14 15 15 16 16 16 17 17 17 17 17 18 17 17 17 17 17 16 16
13 11 10 11 11 11 11 11 11 11 11 11 12 11 12 11 11 11 11 12 12 13 13 14 14 15 15 16 16 17 17 17 17 17 17 17 17 17 17 17 17 17 17 16
12 10 10 10 10 10 10 11 11 11 11 11 11 11 10 10 10 11 11 11 12 12 13 13 14 14 15 16 16 17 18 18 18 17 17 17 17 17 17 17 17 17 17 16
11 10 10 10 11 11 10 10 11 11 11 11 10 10 10 10 10 10 10 11 11 12 12 13 13 14 15 16 16 17 17 17 17 17 17 16 17 17 17 17 17 17 17 16
10 10 10 11 11 11 10 10 10 10 10 10 11 10 10 10 10 10 10 11 11 12 12 13 13 14 14 14 15 15 16 16 16 16 16 16 16 16 16 16 16 16 16 16
9 10 9 9 10 11 9 9 9 10 9 9 9 9 10 10 10 10 10 11 11 12 13 13 13 13 13 13 13 14 14 14 14 15 15 15 15 15 15 16 16 16 16 16
9 8 7 8 10 9 9 10 10 10 10 10 10 10 10 9 10 12 11 11 12 13 13 13 13 13 13 13 13 13 13 13 13 14 14 14 14 14 15 15 15 15 15 15
7 8 7 7 8 9 10 10 9 9 10 10 9 9 10 10 12 13 12 12 13 13 13 13 13 13 13 12 12 13 13 13 13 13 13 13 13 13 14 14 14 13 13 13
8 7 7 7 9 9 9 10 10 9 10 10 9 9 9 9 10 11 12 13 14 14 14 13 13 13 13 13 13 13 12 12 12 12 12 12 12 12 12 12 12 12 12 12
8 7 7 7 8 8 9 10 10 9 10 10 10 10 10 9 9 11 13 13 14 14 14 14 14 14 13 13 13 13 13 12 12 11 11 11 11 11 11 11 11 11 11 11
8 8 7 7 8 8 11 10 9 9 11 11 11 11 11 11 12 13 14 14 15 15 14 14 14 14 14 14 13 13 13 12 12 12 11 11 11 11 11 11 11 11 11 11
7 7 7 7 8 10 11 11 11 11 11 11 11 11 11 12 12 13 14 15 15 15 15 15 15 14 14 14 14 13 13 13 12 12 11 11 11 11 11 11 11 11 11 11
8 8 7 8 8 10 11 11 11 11 11 11 11 11 12 12 13 13 14 15 15 15 15 15 15 15 15 14 14 14 13 13 12 12 12 11 11 11 11 11 11 11 11 11
8 7 7 8 9 10 11 11 11 11 11 11 11 12 12 12 13 13 14 15 15 15 15 15 15 15 15 15 15 14 14 13 13 12 12 11 11 11 11 11 11 11 10 10
8 7 8 8 10 10 12 12 12 12 12 11 12 12 12 12 12 13 14 14 15 15 15 16 16 16 16 15 15 15 14 13 13 12 12 12 11 11 11 11 11 10 10 10
Wind_Speed
4 4 2 4 4 3 2 3 6 6 3 1 5 8 10 8 7 8 8 8 9 10 11 10 12 14 14 15 15 15 14 12 10 7 7 6 5 5 5 5 8 10 11 11
5 3 5 3 1 1 2 3 6 6 2 2 5 7 5 6 7 9 11 11 11 12 11 10 11 13 17 18 18 16 15 13 12 9 6 3 3 3 3 3 5 8 9 10
2 4 4 2 2 2 3 4 5 6 3 2 3 6 4 5 6 11 13 12 13 13 14 12 9 10 13 15 16 14 13 11 10 8 5 4 3 3 2 3 4 5 7 8
3 5 5 5 4 2 5 5 5 4 1 4 1 5 5 7 8 14 18 17 17 18 15 11 7 6 8 10 9 9 10 10 9 8 6 5 4 4 5 3 3 4 5 6
5 6 7 7 6 5 4 5 2 1 3 2 1 3 6 6 10 15 17 18 18 18 16 11 6 2 2 5 8 9 12 11 9 7 4 3 2 2 2 3 4 4 3 4
5 5 5 5 6 4 4 4 4 4 3 2 4 4 4 5 10 15 16 17 18 18 16 12 9 8 7 9 10 11 13 11 9 6 2 4 4 4 4 4 4 3 2 2
9 7 8 6 8 8 8 6 5 5 2 5 2 3 1 5 9 11 15 17 16 15 15 13 10 8 8 9 10 10 12 11 8 5 4 5 6 6 5 5 4 4 2 2
7 7 7 8 5 5 6 1 2 4 4 4 2 2 2 5 9 10 11 12 13 14 14 12 10 8 8 9 9 8 9 9 6 4 4 4 5 4 3 4 4 4 3 3
4 6 5 5 5 4 6 4 2 2 2 2 2 1 2 11 16 16 16 15 14 14 13 12 10 8 8 8 8 8 7 5 4 4 4 4 4 4 4 4 3 3 3 3
1 5 6 6 6 7 4 2 4 2 2 3 1 2 7 17 20 19 18 16 14 12 12 11 9 9 8 7 8 8 5 2 3 4 4 3 3 4 4 4 4 4 3 3
3 1 7 6 6 6 7 6 4 2 2 1 0 2 8 13 15 16 16 14 12 11 10 9 8 7 7 6 5 4 1 1 2 3 3 4 3 4 4 4 4 4 4 4
3 4 3 4 3 3 3 4 3 2 2 1 1 2 8 12 13 15 16 15 14 12 9 6 6 7 6 5 4 3 2 2 3 4 4 4 3 4 4 3 3 3 3 4
3 5 5 9 7 8 6 7 5 2 0 1 1 2 9 14 16 17 17 16 14 13 11 9 8 7 6 5 5 4 4 4 3 5 5 4 3 3 3 2 2 2 2 3
5 5 4 2 3 6 8 12 10 4 2 3 4 5 13 20 20 19 18 16 14 13 12 12 10 9 7 6 6 5 3 1 2 4 4 3 3 2 1 1 1 1 2 3
5 5 4 5 4 7 13 16 16 14 9 6 6 7 13 17 16 15 16 16 16 15 15 14 13 11 11 11 10 9 8 6 5 5 5 4 3 3 3 3 2 1 2 2
5 5 3 2 1 8 12 18 16 12 10 9 9 8 14 14 11 13 16 17 16 14 14 13 13 13 13 13 12 12 12 11 10 9 8 7 6 6 6 5 4 4 3 3
3 4 3 1 4 3 8 12 10 7 9 8 8 9 15 13 15 12 13 15 14 12 10 11 10 10 10 10 10 10 10 10 10 10 9 8 8 7 7 6 6 5 5 3
4 4 3 3 5 5 3 3 4 4 6 8 7 10 13 13 13 7 7 12 13 11 9 9 8 8 8 8 8 8 9 9 9 9 9 9 8 8 7 7 7 6 4 4
4 5 4 4 3 1 4 3 3 4 4 6 8 12 14 15 7 5 10 13 10 7 6 5 5 5 6 7 7 7 8 8 9 9 8 8 8 8 8 8 7 6 5 6
7 6 5 4 4 1 4 3 1 1 3 5 7 9 11 11 8 8 15 15 12 8 4 4 4 5 6 6 6 7 7 8 8 7 7 7 7 7 7 7 6 5 5 6
5 6 5 4 2 4 5 3 1 1 3 7 6 7 6 5 5 11 15 11 8 6 5 4 5 5 5 6 6 7 6 6 5 5 6 7 7 7 7 7 6 6 7 7
3 2 2 3 2 5 4 2 3 5 4 4 5 5 6 8 9 9 10 10 9 7 6 5 5 5 5 5 5 5 5 4 3 4 5 7 7 7 6 7 7 7 7 8
5 6 5 6 6 5 4 5 4 4 4 5 5 7 7 7 7 8 9 10 8 7 5 4 4 5 6 4 3 4 4 3 2 3 4 5 6 6 6 7 7 6 7 7
3 4 4 2 5 5 5 4 4 4 5 7 7 7 5 6 8 8 8 8 8 7 5 4 4 5 6 5 3 2 3 1 2 2 3 3 4 5 6 6 6 6 7 7
7 7 4 4 5 4 6 5 5 4 5 5 5 4 5 6 7 6 7 7 7 6 5 4 4 5 6 5 4 2 0 2 2 1 2 3 3 3 3 4 4 4 4 5
7 8 8 7 8 7 7 6 4 4 3 3 4 6 6 5 6 7 7 6 6 7 6 5 5 6 6 5 5 3 2 3 2 0 1 2 2 2 2 2 2 2 2 4
Wind_Direction
29 50 305 258 219 221 210 226 259 263 267 265 268 280 295 328 349 339 330 315 299 281 268 255 240 227 214 208 202 198 195 186 174 170 174 178 198 198 199 198 194 195 200 202
29 328 280 273 155 156 201 253 269 283 309 250 288 287 309 5 19 6 352 337 321 311 298 277 252 230 216 210 205 198 193 185 180 182 172 159 155 178 190 191 189 192 191 193
237 286 328 44 26 316 265 235 257 270 330 18 328 313 353 353 9 10 5 353 342 331 314 294 270 239 220 214 205 195 185 175 167 151 131 106 96 91 133 187 197 194 189 190
356 344 24 34 5 325 287 288 261 259 285 287 15 292 315 335 345 1 357 353 347 339 328 307 284 252 216 202 182 162 148 139 132 129 145 172 180 191 199 188 186 179 184 188
357 12 39 28 342 343 296 334 347 292 195 276 297 221 304 349 354 349 347 347 346 345 340 336 334 316 148 134 124 119 114 113 110 112 152 197 198 183 151 148 158 164 177 189
356 3 39 358 335 351 343 8 22 40 90 247 242 189 324 5 343 334 339 343 346 350 352 359 20 41 69 90 101 107 107 104 102 108 153 206 198 181 164 160 158 159 168 183
349 359 360 2 360 357 22 31 358 341 350 244 272 145 79 359 348 334 331 336 343 350 356 3 17 40 57 75 88 98 106 103 109 132 186 204 198 189 181 173 169 163 168 187
7 330 355 7 7 329 340 44 210 252 243 283 346 163 146 10 344 334 331 334 344 354 359 5 13 39 62 69 78 87 100 112 129 158 200 203 188 181 179 171 168 173 181 187
355 299 337 4 3 27 358 347 278 225 254 262 292 39 351 351 352 352 348 345 349 354 358 6 16 34 60 69 73 76 85 107 144 179 187 186 178 175 179 175 168 168 171 169
29 297 322 329 16 26 41 345 14 8 244 241 278 48 358 346 345 345 344 342 343 349 354 6 20 28 44 54 62 64 67 135 180 177 170 174 175 184 179 164 163 162 161 152
54 48 324 4 26 348 359 10 5 316 267 230 167 59 11 346 342 344 343 342 344 349 350 3 15 21 32 38 45 47 6 214 174 166 162 158 161 166 161 157 161 160 158 160
63 93 336 318 340 16 30 359 335 312 317 343 128 68 5 350 350 356 352 352 356 359 3 7 19 22 17 13 2 332 284 237 198 169 156 154 138 125 120 128 143 147 157 170
65 66 9 349 358 10 4 348 332 282 275 2 67 18 356 359 4 6 2 0 5 10 20 25 33 31 15 358 339 311 276 241 197 162 147 129 114 108 111 113 116 132 159 183
89 71 86 46 354 350 357 11 17 26 41 45 35 6 357 359 359 359 3 5 11 23 29 31 33 32 26 17 2 350 338 248 156 141 133 129 116 111 115 105 118 158 189 206
72 82 82 98 83 48 33 24 28 38 37 43 29 20 0 349 346 352 1 7 16 24 29 31 32 34 35 35 34 32 31 37 62 78 67 50 38 40 31 24 5 326 265 244
58 106 116 113 103 50 35 18 17 26 24 24 22 15 346 338 344 360 6 10 13 15 20 24 30 33 34 33 33 36 40 44 56 60 51 38 29 27 18 5 358 350 332 311
55 104 104 21 316 28 24 0 1 23 28 14 11 342 333 341 344 352 1 4 4 3 7 16 20 24 27 28 31 35 36 43 52 51 43 34 29 27 14 6 9 3 350 342
102 94 99 70 49 51 294 300 337 351 30 15 352 341 343 334 315 313 3 1 353 351 356 4 9 15 17 21 27 32 33 38 43 41 35 28 26 22 15 17 16 7 0 358
78 117 98 91 87 33 327 1 356 344 343 358 347 341 344 337 329 353 360 355 341 333 336 345 357 6 12 15 14 32 31 31 36 31 25 18 17 18 18 18 11 8 10 16
45 65 94 94 104 195 269 301 310 251 326 342 340 333 338 356 20 337 332 334 330 333 332 344 355 10 14 0 6 33 26 26 23 14 11 11 16 22 21 18 15 12 21 27
22 32 65 100 128 251 253 284 135 130 273 307 312 309 322 335 273 285 307 319 324 327 334 353 3 3 351 348 9 24 19 10 354 6 20 22 22 27 27 29 28 27 33 39
156 129 147 133 149 240 245 153 167 215 254 281 288 292 302 296 293 304 319 333 341 344 340 346 347 339 336 347 5 11 359 335 353 31 37 30 27 29 31 37 34 31 33 37
185 189 186 187 209 228 217 209 226 207 248 272 274 290 301 303 311 320 326 333 336 336 330 329 327 324 327 333 347 353 333 340 37 45 37 29 31 34 33 38 34 31 32 34
234 149 141 222 259 247 240 247 260 233 236 260 272 284 293 298 306 317 322 329 334 331 328 327 326 319 315 317 323 313 323 31 91 52 25 18 24 31 36 38 37 37 30 26
206 167 168 224 252 257 264 246 248 261 264 280 297 294 298 302 309 312 316 318 321 320 316 313 295 287 289 298 299 295 190 136 127 61 17 13 18 34 47 47 39 33 32 20
191 171 174 208 206 186 221 227 223 235 267 294 314 322 325 317 309 312 310 308 311 313 313 311 299 283 284 287 284 277 201 162 156 91 4 7 11 31 59 57 37 24 7 5
Height
1498 1503 1506 1504 1503 1503 1505 1508 1511 1505 1498 1500 1501 1501 1495 1493 1492 1491 1490 1488 1486 1484 1483 1483 1484 1486 1488 1491 1494 1496 1499 1502 1505 1508 1510 1513 1515 1518 1520 1522 1524 1526 1527 1529
1504 1507 1501 1499 1500 1502 1506 1509 1509 1503 1499 1500 1502 1501 1496 1495 1495 1495 1492 1488 1484 1481 1478 1478 1477 1479 1480 1483 1486 1489 1493 1497 1501 1504 1508 1511 1514 1516 1518 1520 1522 1523 1524 1526
1506 1504 1499 1500 1502 1505 1507 1509 1507 1506 1502 1501 1504 1504 1500 1497 1496 1494 1492 1488 1484 1480 1475 1472 1471 1472 1473 1476 1479 1482 1486 1491 1496 1501 1506 1509 1512 1514 1516 1517 1519 1520 1521 1523
1505 1503 1502 1503 1506 1505 1511 1503 1503 1503 1509 1513 1508 1518 1505 1502 1498 1494 1491 1487 1483 1477 1472 1468 1467 1467 1468 1470 1473 1477 1481 1486 1492 1497 1503 1506 1509 1511 1513 1515 1517 1518 1519 1520
1509 1507 1507 1510 1509 1505 1506 1502 1503 1504 1508 1513 1512 1516 1513 1505 1503 1498 1494 1490 1484 1477 1471 1467 1464 1464 1464 1466 1470 1473 1476 1481 1488 1494 1501 1504 1507 1509 1511 1512 1513 1514 1515 1517
1510 1508 1509 1510 1507 1506 1505 1505 1507 1511 1513 1521 1512 1517 1517 1512 1509 1502 1496 1491 1485 1479 1472 1468 1465 1463 1463 1464 1467 1471 1473 1478 1484 1491 1497 1502 1505 1507 1508 1509 1510 1512 1513 1514
1521 1515 1513 1511 1512 1509 1511 1517 1526 1525 1527 1523 1511 1514 1518 1511 1508 1505 1499 1493 1487 1481 1475 1470 1467 1465 1465 1466 1468 1471 1474 1478 1483 1489 1495 1500 1503 1506 1507 1508 1509 1510 1511 1512
1533 1531 1520 1516 1518 1518 1517 1520 1531 1535 1531 1523 1513 1516 1516 1510 1508 1504 1499 1494 1488 1482 1477 1473 1471 1469 1468 1470 1471 1474 1475 1480 1485 1490 1495 1499 1502 1504 1506 1507 1508 1508 1509 1510
1534 1532 1521 1519 1519 1519 1522 1524 1523 1528 1524 1524 1520 1516 1512 1509 1505 1502 1497 1493 1489 1484 1480 1475 1473 1472 1471 1471 1473 1475 1478 1483 1487 1492 1496 1499 1501 1503 1505 1507 1507 1508 1508 1508
1529 1534 1527 1523 1520 1521 1524 1525 1529 1530 1531 1530 1522 1522 1524 1517 1511 1504 1499 1494 1490 1486 1482 1478 1475 1474 1473 1473 1474 1478 1482 1486 1489 1493 1496 1499 1501 1503 1505 1505 1506 1506 1506 1507
1529 1536 1535 1530 1531 1532 1530 1529 1531 1532 1530 1531 1530 1531 1525 1523 1516 1509 1502 1496 1491 1487 1484 1480 1478 1476 1475 1476 1479 1481 1485 1489 1491 1494 1497 1499 1500 1502 1503 1503 1504 1504 1505 1505
1532 1540 1543 1537 1533 1531 1532 1533 1532 1534 1531 1528 1530 1535 1526 1523 1517 1511 1504 1498 1493 1489 1486 1484 1482 1480 1479 1480 1482 1484 1487 1490 1492 1494 1496 1498 1499 1500 1501 1502 1502 1503 1503 1504
1533 1542 1550 1545 1542 1538 1536 1534 1531 1531 1531 1530 1530 1535 1526 1523 1516 1512 1506 1501 1496 1492 1489 1486 1485 1484 1483 1483 1484 1486 1487 1489 1491 1493 1495 1496 1497 1498 1499 1500 1500 1501 1502 1502
1533 1546 1552 1557 1554 1548 1542 1536 1531 1530 1532 1533 1534 1534 1529 1525 1520 1515 1510 1505 1500 1496 1494 1491 1489 1488 1487 1486 1486 1486 1486 1488 1489 1491 1492 1493 1494 1496 1496 1497 1498 1499 1500 1501
1537 1550 1552 1552 1550 1548 1547 1543 1538 1536 1536 1537 1538 1536 1536 1532 1527 1522 1516 1510 1504 1501 1498 1496 1494 1492 1490 1489 1488 1487 1487 1487 1488 1489 1490 1491 1492 1493 1494 1495 1496 1497 1498 1498
1542 1549 1552 1553 1550 1549 1550 1549 1546 1543 1543 1542 1540 1539 1538 1534 1529 1524 1519 1514 1510 1507 1504 1502 1499 1496 1494 1493 1491 1490 1489 1488 1489 1489 1490 1491 1491 1491 1492 1493 1494 1495 1495 1496
1547 1549 1555 1558 1553 1553 1560 1558 1556 1553 1552 1550 1548 1548 1540 1534 1530 1527 1523 1519 1516 1513 1510 1507 1505 1502 1500 1498 1497 1495 1493 1493 1492 1491 1491 1491 1491 1491 1491 1491 1492 1492 1492 1492
1547 1553 1559 1561 1559 1566 1567 1559 1558 1556 1554 1553 1550 1547 1542 1538 1533 1530 1527 1523 1520 1518 1516 1513 1511 1508 1506 1504 1502 1500 1498 1496 1495 1494 1493 1492 1491 1490 1490 1490 1490 1489 1489 1489
1547 1552 1559 1565 1566 1566 1562 1559 1559 1558 1555 1553 1551 1547 1542 1537 1532 1530 1528 1526 1524 1522 1520 1518 1516 1514 1512 1510 1508 1506 1503 1501 1498 1496 1494 1493 1492 1491 1490 1489 1488 1488 1488 1487
1550 1553 1561 1566 1566 1569 1565 1558 1558 1560 1557 1553 1551 1548 1545 1540 1539 1536 1531 1528 1526 1525 1524 1522 1520 1519 1516 1514 1512 1510 1507 1504 1501 1499 1498 1496 1494 1493 1492 1491 1490 1489 1488 1487
1559 1562 1565 1567 1568 1565 1559 1557 1557 1563 1561 1553 1551 1549 1546 1544 1544 1539 1533 1530 1528 1527 1526 1525 1523 1521 1519 1517 1515 1512 1510 1508 1506 1504 1502 1500 1498 1496 1495 1494 1493 1492 1491 1489
1560 1563 1565 1568 1568 1567 1555 1555 1557 1557 1553 1552 1550 1548 1546 1544 1541 1537 1534 1532 1530 1529 1528 1527 1525 1524 1522 1520 1518 1516 1513 1511 1509 1507 1505 1503 1501 1500 1499 1498 1496 1495 1493 1492
1558 1558 1559 1561 1561 1553 1552 1553 1553 1553 1552 1551 1549 1548 1546 1543 1540 1538 1535 1533 1532 1530 1529 1528 1527 1526 1524 1523 1521 1518 1516 1514 1512 1510 1508 1506 1505 1503 1502 1500 1499 1497 1495 1493
1553 1552 1555 1555 1553 1551 1551 1551 1551 1551 1551 1550 1549 1547 1545 1543 1541 1538 1536 1534 1533 1531 1530 1529 1528 1527 1526 1524 1522 1520 1518 1516 1514 1512 1511 1509 1507 1506 1504 1502 1500 1498 1496 1494
1547 1550 1552 1552 1550 1549 1549 1549 1550 1550 1550 1549 1548 1547 1545 1543 1541 1539 1537 1535 1533 1531 1530 1529 1528 1527 1526 1525 1523 1522 1520 1518 1516 1514 1512 1511 1509 1507 1506 1504 1502 1500 1498 1496
1540 1542 1546 1547 1543 1545 1546 1547 1548 1549 1549 1548 1547 1546 1545 1543 1541 1539 1536 1534 1533 1531 1530 1528 1527 1526 1526 1525 1523 1522 1520 1519 1517 1515 1513 1512 1510 1508 1507 1505 1503 1501 1500 1498